This is the latest recevied weather packets stored in our database for station/object K7D3. If no packets are shown the sender has not sent any weather packets the latest 10 day(s).
| Time | Temp. | Humidity | Pressure | Rain* | Wind** | Luminosity | Snow |
|---|---|---|---|---|---|---|---|
| 1777966124 | 10° C | 79% | - | 0 mm | 2.68 m/s, 48° | - | - |
| 1777965645 | 10° C | 80% | - | 0 mm | 1.34 m/s, 65° | - | - |
| 1777965162 | 10° C | 81% | - | 0 mm | 4.92 m/s, 76° | - | - |
| 1777964683 | 10.56° C | 79% | - | 0 mm | 3.58 m/s, 83° | - | - |
| 1777964204 | 11.11° C | 74% | - | 0 mm | 2.68 m/s, 65° | - | - |
| 1777963722 | 11.67° C | 68% | - | 0 mm | 4.47 m/s, 83° | - | - |
| 1777963243 | 12.22° C | 55% | - | 0 mm | 3.58 m/s, 91° | - | - |
| 1777962764 | 12.22° C | 52% | - | 0 mm | 1.79 m/s, 13° | - | - |
| 1777962282 | 12.78° C | 51% | - | 0 mm | 0.45 m/s, 319° | - | - |
| 1777961803 | 12.78° C | 50% | - | 0 mm | 0 m/s | - | - |
| 1777961324 | 13.33° C | 50% | - | 0 mm | 0 m/s | - | - |
| 1777960841 | 13.33° C | 49% | - | 0 mm | 0 m/s | - | - |
| 1777960362 | 13.33° C | 49% | - | 0 mm | 0.89 m/s, 319° | - | - |
| 1777959883 | 13.89° C | 49% | - | 0 mm | 0 m/s | - | - |
| 1777959401 | 13.89° C | 49% | - | 0 mm | 0 m/s | - | - |
| 1777958922 | 13.89° C | 48% | - | 0 mm | 0 m/s | - | - |
| 1777958443 | 13.89° C | 48% | - | 0 mm | 4.02 m/s, 330° | - | - |
| 1777957961 | 14.44° C | 48% | - | 0 mm | 2.68 m/s, 336° | - | - |
| 1777957482 | 14.44° C | 49% | - | 0 mm | 2.24 m/s, 343° | - | - |
| 1777957003 | 15° C | 49% | - | 0 mm | 1.79 m/s, 319° | - | - |
| 1777956519 | 14.44° C | 50% | - | 0 mm | 0.45 m/s, 354° | - | - |
| 1777956040 | 15° C | 54% | - | 0 mm | 2.24 m/s, 330° | - | - |
| 1777955561 | 15° C | 59% | - | 0 mm | 0 m/s | - | - |
| 1777955078 | 15° C | 61% | - | 0 mm | 0 m/s | - | - |
| 1777954599 | 15° C | 62% | - | 0 mm | 0 m/s | - | - |
* Rain latest hour (hover to see other rain measurements)
** Current wind speed in m/s (hover to see current wind gust speed)